Powrót do katalogu

PEGASUS DEB

AktywnyPO
NORAD 39921·DEBRIS·🇺🇸 United States

Wystrzelony May 19, 1994 z Vandenberg Space Force Base

Loading…

Następne Przeloty (najbliższe 24 godziny)

TLE

Starzejące sięSource: Space-Track

Epoka: Sep 5, 2026, 10:32 UTC

1 39921U 94029AFU 26248.43954166  .00001388  00000-0  36385-3 0  9996
2 39921  81.5359 141.3258 0370608 103.9409 260.3269 14.14716054 56496

Śledź PEGASUS DEB w czasie rzeczywistym z AllMySat

Download on the App Store